Theta_e
323 321 320 322 323 322 322 321 319 316 313 311 312 312 310 309 309 309 309 309 308 309 311 313 314 315 316 316 317 317 317 317 316 315 314 314 313 312 311 311 310 309 308 307 307 306 305 305 304 305 305 305 306 306 306 306 306 306 306 305 306 307 307 307 307 306 305 305 305 304 305 305 305 305 305 306 306 306 307 306 306 306 306 306 306
325 323 322 323 323 321 322 323 322 320 316 314 317 318 313 310 310 311 311 312 312 312 314 316 317 318 318 318 317 318 318 318 318 317 317 317 316 316 315 314 313 312 311 311 310 309 309 308 306 306 306 305 305 305 306 306 306 306 306 306 306 306 306 306 306 305 305 306 306 306 307 307 306 307 306 306 306 306 306 306 306 307 307 307 307
327 326 324 324 322 321 322 324 324 324 319 315 318 321 316 312 312 313 312 313 314 315 316 318 319 318 318 318 318 318 318 318 318 318 318 318 318 318 318 317 316 316 315 314 314 313 312 311 310 309 308 307 307 307 306 306 306 306 306 306 306 306 307 308 309 309 310 310 310 310 311 310 310 310 310 309 308 307 306 306 306 307 307 307 307
327 327 326 325 322 321 322 323 324 325 322 318 318 321 319 316 315 315 314 312 314 317 318 318 319 318 318 318 318 319 319 319 318 318 318 317 316 318 318 318 318 317 317 317 317 317 316 314 313 312 312 311 310 310 309 308 307 307 308 308 309 309 311 312 313 312 312 311 311 311 311 311 311 311 311 310 310 309 309 308 307 307 307 307 307
327 327 327 326 324 324 324 324 324 324 322 319 318 321 321 319 318 317 316 314 315 318 319 319 319 318 317 316 316 317 319 318 318 318 318 316 316 316 317 318 318 318 318 318 319 319 318 317 316 315 314 313 313 313 313 312 310 310 312 312 313 313 313 314 313 313 312 311 311 311 310 309 309 309 309 309 308 308 309 309 309 308 308 308 308
326 327 327 326 326 326 325 325 324 324 322 319 318 320 321 320 320 318 317 315 315 316 318 318 318 317 316 315 315 316 317 318 317 317 317 317 316 316 317 317 317 318 318 319 319 319 319 319 318 317 316 315 315 315 315 314 313 313 313 312 313 313 314 313 313 313 313 312 311 311 310 310 309 309 308 308 307 306 306 307 308 308 309 308 308
325 325 325 325 326 325 325 325 324 323 322 320 319 320 321 321 321 320 318 316 315 314 315 315 315 315 315 314 314 315 316 316 316 316 316 317 317 317 317 317 317 317 318 319 319 319 319 318 318 318 317 317 317 316 315 315 315 314 312 311 311 312 313 314 313 313 313 312 312 312 311 310 310 309 309 309 309 308 306 306 305 306 307 308 308
323 323 324 324 325 325 325 324 323 322 320 319 319 320 321 321 321 320 319 319 317 316 316 315 315 315 316 316 315 315 316 317 317 318 317 317 317 317 318 318 317 318 319 319 319 319 319 318 316 316 316 317 317 317 316 315 315 314 313 312 312 311 312 313 313 313 313 312 312 311 311 311 310 309 309 309 308 308 307 307 306 304 304 305 306
323 323 323 324 324 324 323 322 322 321 321 320 320 320 321 321 320 320 320 320 319 319 318 317 317 317 317 317 317 317 317 318 318 318 317 317 317 319 319 319 319 319 319 319 319 319 319 318 316 316 316 317 318 318 317 316 315 314 314 314 313 312 312 311 312 312 312 312 311 311 311 310 310 309 309 308 308 307 307 307 306 305 303 303 304
323 323 324 323 323 323 323 322 321 321 320 320 320 320 320 320 319 319 319 319 318 317 317 317 316 316 317 317 317 318 317 318 318 317 317 317 317 316 316 317 318 319 319 319 319 319 319 318 317 317 317 318 318 318 318 317 316 315 315 314 314 313 313 312 311 311 311 311 311 311 311 310 310 310 309 308 307 307 306 306 305 304 303 303 303
322 323 323 323 323 323 322 322 321 320 319 320 320 320 319 319 319 319 318 317 317 317 317 317 316 316 317 317 317 317 317 317 316 316 315 314 313 313 312 313 314 316 317 318 318 318 317 316 316 317 318 319 318 317 316 317 316 316 315 314 313 313 313 313 312 312 311 311 311 311 311 311 310 310 309 308 306 306 305 305 304 303 303 302 303
319 319 320 320 321 321 322 321 321 320 320 319 320 319 319 319 318 318 317 316 316 315 315 316 316 317 317 317 316 316 316 316 315 314 314 313 313 312 312 312 312 313 314 314 314 314 314 313 313 314 315 316 317 317 317 317 317 317 316 315 314 314 314 313 313 312 311 311 310 311 311 310 309 309 308 306 305 305 305 304 303 302 302 302 303
313 313 313 315 316 316 317 317 317 317 317 317 317 317 317 317 316 315 314 314 313 312 313 314 315 315 315 315 315 315 314 314 313 313 313 312 312 312 311 312 313 313 313 313 312 312 311 311 310 310 311 312 313 316 317 317 318 317 317 316 315 314 313 312 312 311 310 310 309 310 310 309 308 308 307 305 304 304 304 304 303 302 302 302 302
309 309 309 310 310 310 310 310 311 311 312 312 313 313 312 312 312 312 311 311 311 310 310 311 311 311 311 311 311 311 310 310 310 309 308 308 307 307 308 309 310 311 312 313 312 312 311 311 311 310 309 309 310 312 314 316 317 317 316 315 314 313 312 311 311 310 309 309 309 309 308 308 307 306 305 304 304 304 303 303 302 302 302 301 300
308 308 308 308 308 308 308 308 308 309 309 309 310 310 310 309 310 309 309 309 309 308 308 308 307 307 306 306 305 305 304 304 303 303 303 303 303 303 303 303 305 306 309 310 311 310 311 312 312 311 310 309 309 311 313 315 316 316 315 314 313 312 311 311 310 309 309 308 308 308 307 306 305 304 303 303 303 303 303 303 302 301 300 299 297
307 307 307 307 307 307 307 308 308 308 308 308 308 308 308 308 308 307 307 306 306 305 305 304 304 304 304 303 303 303 302 302 302 301 301 301 301 302 302 302 302 303 304 307 308 309 311 312 313 312 311 310 310 311 313 313 315 315 314 312 312 311 310 310 309 309 308 308 307 307 306 305 304 303 303 303 303 303 302 301 300 299 297 295 295
306 306 307 307 307 307 307 307 308 308 308 308 308 308 308 307 307 307 306 305 304 304 304 304 304 304 304 304 303 303 303 303 302 302 301 301 301 301 301 302 302 302 302 304 307 309 311 312 313 312 312 311 310 311 312 313 313 312 311 310 310 310 309 309 308 307 307 307 307 306 305 304 304 303 303 303 303 302 300 298 296 295 294 294 294
306 306 306 306 306 306 306 306 306 306 306 307 307 308 308 308 307 307 306 305 305 305 305 305 305 304 304 303 304 303 303 303 302 302 301 301 301 301 301 301 301 301 302 303 305 308 310 311 312 311 311 309 309 309 310 310 310 309 309 308 308 308 308 307 307 307 307 307 306 305 305 304 304 304 303 303 302 300 297 295 294 294 293 293 293
306 306 306 306 306 306 305 305 305 305 305 305 307 308 308 308 307 307 307 306 306 305 306 305 305 304 304 304 303 303 303 302 302 302 302 302 301 301 301 301 301 301 301 301 303 306 308 309 309 309 308 307 306 306 307 307 308 308 307 307 306 306 306 306 306 306 306 305 304 304 304 304 304 303 302 300 298 295 294 293 293 293 293 293 293
306 306 306 306 306 306 306 306 306 306 306 306 306 307 307 307 306 306 306 306 305 305 305 304 304 303 303 303 303 303 302 302 302 302 302 302 301 301 301 302 303 303 302 300 302 304 305 305 306 307 306 306 306 306 306 306 307 307 307 306 306 306 306 306 306 305 304 304 303 303 303 302 301 299 297 295 294 293 293 293 293 293 292 292 292
306 305 306 306 306 306 305 305 305 306 306 306 306 306 306 306 305 305 305 304 304 303 303 303 303 302 302 302 302 301 301 301 302 303 303 302 301 300 301 303 304 304 303 301 301 304 305 305 305 306 306 306 305 305 306 306 306 306 306 306 306 306 305 305 305 304 303 303 302 300 299 297 295 294 294 293 293 293 293 293 293 293 292 292 292
304 304 304 305 306 306 305 305 305 305 305 305 305 305 305 305 305 305 305 304 303 303 303 303 302 302 301 301 300 300 300 300 301 302 303 303 302 301 301 304 305 305 303 302 302 304 306 306 305 305 305 306 305 305 305 305 305 305 305 305 304 304 304 304 303 301 300 298 296 295 294 293 293 293 293 294 293 294 293 293 293 293 292 292 292
301 301 302 302 303 304 305 305 305 305 305 304 304 304 304 305 305 305 304 304 303 303 303 302 302 301 301 301 300 300 300 300 300 301 302 303 304 303 302 303 306 306 304 303 303 305 306 307 306 306 306 305 305 304 304 304 303 304 303 303 303 302 301 300 298 296 295 294 293 293 293 293 293 293 293 293 293 294 294 293 293 293 292 292 292
301 301 301 301 301 302 303 304 305 305 304 304 304 304 303 304 304 304 303 303 303 303 302 302 301 301 301 301 301 301 301 300 300 301 301 302 304 303 302 303 306 306 305 304 304 305 306 306 306 305 305 304 303 302 302 302 302 302 302 301 300 299 297 295 294 293 293 293 293 293 293 294 293 293 293 293 293 293 293 293 293 293 292 292 292
300 301 301 301 301 301 302 303 304 304 304 304 304 303 303 303 303 303 303 303 303 303 302 302 301 301 301 301 301 301 300 300 300 300 300 301 302 301 302 304 306 306 305 305 305 305 305 305 304 304 303 302 302 301 301 301 300 300 298 297 295 294 293 293 293 293 293 293 293 294 294 294 293 293 293 293 293 293 293 292 292 292 292 292 292
299 300 300 300 301 301 301 301 302 303 304 304 304 303 303 303 303 303 303 303 303 303 302 302 301 301 301 301 301 300 300 300 299 299 300 300 300 300 303 305 306 306 305 306 306 305 305 304 304 303 302 301 301 300 299 297 296 295 294 293 293 293 293 293 293 293 294 294 294 294 293 293 293 293 293 293 293 293 292 291 291 291 291 291 290
299 299 300 300 300 301 301 301 301 302 302 303 304 303 303 303 303 303 303 303 303 302 302 302 301 301 301 300 300 300 300 299 299 299 300 300 299 301 304 306 306 306 305 305 305 305 304 303 303 302 301 301 299 297 295 293 293 293 293 293 293 293 293 293 294 294 294 293 293 293 293 293 293 293 293 293 292 292 291 290 290 290 289 289 289
298 299 300 300 301 301 301 302 302 302 302 303 303 303 303 303 303 303 303 303 303 302 301 301 301 300 300 300 300 300 299 299 299 299 300 300 300 301 304 306 306 305 305 305 304 304 303 303 302 301 299 297 295 293 293 293 293 293 293 293 293 293 294 294 294 293 293 293 293 293 293 293 293 293 292 292 291 291 290 289 289 289 289 288 288
297 297 299 300 301 301 301 301 302 302 302 303 303 303 304 303 303 303 303 302 302 301 301 300 300 300 300 300 300 300 299 299 299 300 301 301 300 301 303 305 305 305 304 304 303 302 302 301 300 297 295 294 293 293 293 293 293 293 293 293 294 293 293 293 293 292 292 292 292 292 292 292 293 292 292 291 291 290 290 289 289 289 289 289 288
296 296 297 298 299 300 300 300 300 301 302 302 302 303 303 302 302 302 302 301 301 300 300 300 300 300 300 300 300 299 299 300 300 301 302 301 301 301 303 304 304 304 303 303 302 301 300 299 296 294 293 293 292 292 293 293 293 293 294 294 293 293 292 292 292 292 292 292 292 292 292 292 292 291 291 291 290 290 290 290 289 289 289 289 289
295 295 296 297 298 298 299 299 299 299 300 300 300 301 301 301 301 301 301 300 300 300 299 300 300 300 300 300 300 300 299 300 300 301 302 302 301 301 303 304 304 303 302 301 301 300 298 296 294 293 292 292 292 293 293 293 294 294 294 293 293 292 292 291 291 291 291 291 291 291 291 291 291 291 291 290 290 290 290 290 290 290 289 289 289
296 296 295 296 296 297 298 298 298 299 299 299 299 300 300 300 300 300 300 300 300 299 299 300 300 300 300 299 299 299 299 299 300 301 302 301 301 302 303 303 303 302 301 300 299 297 295 294 293 292 292 292 293 293 293 294 294 294 293 293 292 291 291 291 291 291 290 290 291 291 291 291 291 290 290 290 290 290 290 290 290 290 290 290 290
297 296 297 297 298 298 299 299 300 300 300 300 301 301 300 300 300 300 300 299 299 299 299 300 300 299 299 298 298 298 298 298 300 301 301 301 302 302 303 302 301 300 299 298 296 294 293 292 292 292 292 293 293 293 294 294 293 293 292 292 291 291 291 290 290 290 290 290 290 291 290 290 290 290 290 290 290 290 290 290 290 291 290 291 290
297 298 299 300 300 300 300 301 301 301 301 301 301 301 301 301 300 300 300 300 299 299 299 299 299 299 298 298 298 298 298 298 299 300 301 302 302 303 302 301 300 298 296 295 293 293 292 292 292 292 293 293 293 293 293 293 292 291 291 291 291 291 291 291 290 290 290 290 290 290 290 290 290 290 290 290 290 290 290 290 290 291 291 291 291
298 299 300 300 300 301 301 301 301 301 300 300 300 300 300 300 299 299 299 299 299 299 299 299 299 298 298 298 298 298 298 298 299 300 301 302 302 301 300 299 297 296 294 293 292 292 292 292 292 293 293 293 293 293 292 291 291 291 291 291 291 291 291 290 290 290 290 289 289 290 290 290 290 290 290 290 290 290 290 290 290 291 291 291 291
298 299 300 300 300 300 300 300 300 299 299 299 299 298 298 298 298 298 298 298 298 298 298 298 298 298 297 298 298 298 298 298 299 300 302 302 301 299 297 296 295 294 293 292 292 292 292 293 293 293 293 293 292 292 291 291 290 290 290 290 290 291 290 290 290 290 289 289 289 289 290 290 290 290 290 290 290 290 290 290 291 291 291 291 291
299 299 299 299 298 298 298 298 298 298 298 298 298 297 297 297 297 297 297 298 297 297 297 297 298 298 298 298 298 298 299 300 300 300 300 299 297 296 295 294 293 293 292 291 292 292 293 293 293 293 293 292 291 291 291 290 290 289 289 289 290 290 290 290 290 290 290 290 290 289 290 290 290 290 290 290 290 290 290 290 291 291 291 291 291
298 298 298 297 297 297 297 297 297 296 296 296 296 296 296 296 297 297 297 297 297 297 297 298 298 298 298 298 298 299 300 301 300 297 296 295 294 293 293 293 292 292 291 291 292 293 293 293 293 292 292 292 291 290 290 290 290 289 289 288 289 290 290 290 290 290 290 290 290 290 290 290 290 290 290 290 290 290 290 290 291 291 291 291 291
297 297 297 296 296 296 296 295 295 295 295 295 295 295 295 295 295 295 295 296 296 297 297 297 297 297 298 299 300 300 300 299 297 295 294 293 293 293 293 292 291 290 291 292 293 293 293 293 292 292 292 291 291 290 289 290 290 289 288 288 288 289 290 290 290 290 290 290 290 289 290 290 290 290 290 290 289 290 290 290 290 291 291 291 292
296 296 296 296 296 295 295 295 294 294 294 294 294 294 294 294 294 294 294 295 296 296 296 297 297 297 298 299 300 300 298 296 295 294 293 293 293 293 293 292 290 290 291 292 292 292 293 292 292 292 291 291 290 290 289 289 289 289 288 288 288 288 289 290 290 290 290 290 290 290 290 290 290 290 290 290 289 289 289 290 290 291 291 292 292
296 296 296 296 296 295 294 294 294 294 294 294 294 294 294 294 294 294 295 295 296 296 297 297 297 297 296 297 297 296 295 295 294 293 293 293 294 294 293 291 290 290 291 292 292 292 292 292 292 291 291 290 290 290 290 289 289 289 288 288 287 288 289 290 290 290 290 290 290 290 290 290 290 290 290 290 289 289 289 289 290 291 291 292 292
296 296 296 296 296 295 295 295 294 293 293 293 293 293 294 294 294 295 295 295 296 296 296 296 295 295 295 294 294 293 293 293 292 293 293 294 294 294 293 292 290 290 291 292 292 292 292 292 292 291 290 290 290 290 290 289 289 289 289 289 288 287 288 289 290 290 290 290 290 290 290 290 290 290 290 290 289 289 289 289 290 291 291 292 292
296 296 296 296 296 296 295 295 293 293 293 293 292 292 293 293 293 294 294 294 294 294 295 295 294 294 293 293 293 293 293 293 293 294 294 294 294 294 294 292 290 290 291 292 292 292 292 292 291 290 290 290 291 291 290 290 289 289 289 289 289 287 288 289 290 290 290 290 290 290 290 290 290 290 290 289 289 289 289 289 290 291 292 292 292
296 297 297 297 297 296 296 295 294 293 293 293 293 293 293 293 293 293 293 293 293 294 294 294 293 293 293 293 293 293 294 294 294 294 294 294 294 294 293 292 290 290 291 292 292 292 292 291 290 290 291 291 291 290 290 290 290 289 289 289 289 287 287 288 290 290 290 290 290 290 290 290 290 290 290 289 289 289 289 289 290 291 292 292 292
296 297 297 297 297 297 296 296 295 294 294 294 294 294 294 294 294 294 294 294 294 294 294 293 293 294 294 294 294 294 294 294 294 294 294 294 294 294 293 292 290 289 290 291 292 291 291 291 290 290 291 291 290 290 289 289 289 289 289 289 288 287 287 288 289 290 290 290 290 289 290 290 290 290 290 289 289 288 288 289 290 291 291 292 292
297 297 297 297 297 297 297 297 296 295 295 295 295 294 294 294 294 294 294 294 294 294 294 294 294 294 294 294 294 294 294 294 294 294 294 294 294 294 293 291 290 289 290 291 291 291 291 290 290 290 290 290 289 289 289 289 289 289 289 288 288 287 286 287 288 289 290 290 290 289 289 290 290 290 290 290 289 289 288 289 289 290 291 292 292
296 296 297 297 297 297 297 297 297 296 296 296 295 295 295 295 295 294 294 294 294 295 294 294 294 294 294 294 294 294 294 294 294 294 294 294 294 294 293 291 289 289 290 291 291 291 290 290 290 290 290 289 289 289 289 288 288 289 289 289 289 288 287 286 287 289 290 290 290 290 289 289 290 290 290 290 290 289 288 289 289 290 291 292 292
296 296 296 297 297 296 296 296 296 296 296 296 296 295 295 295 295 295 294 294 294 294 294 294 294 294 294 294 294 294 294 294 294 294 294 293 293 293 292 291 289 289 290 291 291 290 290 290 290 290 289 289 289 288 288 288 288 288 288 289 289 289 287 286 286 288 289 289 289 289 289 289 290 290 290 290 290 289 289 289 289 290 291 292 292
296 296 296 296 296 296 296 295 295 295 296 296 295 295 295 294 294 294 294 294 294 294 294 294 294 294 294 294 294 294 294 294 294 293 293 293 293 293 292 290 289 289 290 291 290 290 290 290 290 290 289 289 288 288 288 288 288 288 288 289 289 289 288 287 286 287 289 289 289 289 290 289 289 290 290 290 290 290 290 289 289 290 291 292 292
297 296 296 296 296 295 295 295 295 295 295 295 295 294 294 294 294 294 294 293 293 293 294 294 294 294 294 293 293 293 293 293 293 293 293 293 293 293 292 290 289 289 290 290 290 290 290 290 290 290 289 288 288 288 288 288 288 288 288 288 289 289 289 288 287 286 288 289 289 289 289 289 289 290 290 290 290 290 290 290 290 290 291 291 292
297 296 296 296 295 295 295 295 294 294 294 294 294 294 294 294 294 294 293 293 293 293 293 293 293 293 293 293 293 293 293 292 292 292 292 292 293 293 292 290 289 289 289 290 290 290 290 289 289 288 288 287 287 288 288 288 288 288 288 288 289 289 289 289 288 287 287 288 289 289 289 289 289 290 289 290 290 290 290 290 290 291 291 291 291
Wind_Speed
18 21 23 23 20 17 16 15 14 13 14 15 13 12 13 13 12 11 10 10 9 8 7 6 6 4 3 2 1 2 3 4 5 5 4 3 3 3 3 4 5 5 5 5 5 5 5 5 5 5 6 6 6 6 6 6 7 7 8 8 7 8 7 7 7 7 5 3 3 3 3 4 5 5 5 5 5 5 5 6 7 8 8 9 10
17 19 22 23 20 17 17 17 16 14 14 16 15 13 14 15 14 13 12 12 10 9 8 7 6 4 3 2 1 1 2 3 4 4 4 3 3 2 1 1 1 2 2 2 3 4 4 4 3 3 3 3 3 4 4 3 4 4 5 6 6 6 6 6 5 5 3 2 3 4 5 6 6 7 7 8 8 8 8 8 8 9 9 10 11
16 17 19 22 20 17 17 19 18 15 14 16 16 14 14 15 15 15 14 13 12 11 11 9 8 7 5 4 4 3 1 2 3 4 5 4 4 3 3 2 1 1 1 1 1 1 2 3 3 3 2 2 2 2 2 2 2 2 2 2 2 3 4 4 3 3 4 4 5 6 7 8 8 9 10 10 10 11 11 11 11 11 11 11 11
15 16 17 20 20 18 17 18 19 17 15 16 16 15 15 15 14 14 14 14 13 13 12 11 9 9 8 7 7 6 5 5 5 6 7 8 8 7 6 5 4 4 4 4 4 3 3 4 4 3 3 3 3 2 2 2 2 2 3 3 3 2 2 3 6 8 8 7 6 6 8 9 9 10 11 11 11 11 12 12 12 12 12 12 12
13 15 16 18 20 20 17 17 18 17 15 16 17 16 16 16 15 14 14 14 15 14 13 12 12 11 11 11 10 10 10 10 10 9 10 11 12 13 13 11 8 8 8 7 7 6 7 7 7 6 6 5 5 3 2 2 2 2 3 4 4 4 4 5 7 9 9 7 7 7 8 9 9 10 11 12 13 14 14 13 13 13 13 14 14
12 13 14 16 18 18 16 16 18 18 17 16 16 17 18 18 17 15 13 13 14 15 14 14 14 14 14 15 14 14 15 15 14 14 15 15 15 16 17 15 13 12 11 10 9 9 9 10 11 10 9 8 8 6 3 3 4 4 4 4 5 5 5 6 8 9 9 7 7 8 9 10 11 12 13 14 15 16 16 16 16 15 15 15 16
11 11 12 12 13 13 13 13 14 16 17 16 16 17 17 17 18 16 14 12 13 15 15 16 16 16 16 16 16 18 19 18 17 17 17 16 16 17 16 16 16 15 14 14 13 11 10 11 11 11 10 10 10 9 7 6 7 8 8 7 7 7 7 7 8 8 8 8 7 8 9 11 13 14 15 16 18 19 20 20 20 19 19 18 18
7 8 9 9 10 10 10 9 9 10 14 16 16 16 16 17 18 17 14 12 13 14 15 15 16 17 17 17 18 19 19 18 17 17 17 17 17 17 16 16 16 17 16 16 15 13 12 12 11 11 11 13 14 14 13 11 11 10 10 10 10 10 10 10 9 9 8 8 8 8 10 12 13 14 16 17 19 21 22 23 23 24 23 22 22
6 8 8 8 7 8 8 8 7 7 10 13 14 15 15 16 17 16 14 13 14 15 16 17 18 18 17 16 16 16 16 16 16 16 16 16 16 16 16 16 17 17 17 16 16 16 15 14 14 15 15 17 18 19 18 17 15 13 13 13 13 13 13 13 13 11 10 9 9 10 11 12 13 15 16 17 18 20 23 25 25 25 25 24 25
7 8 9 8 7 8 7 6 5 5 6 8 9 11 13 14 14 14 14 14 15 15 16 16 17 17 16 14 13 13 13 12 12 11 11 11 11 11 12 12 13 14 14 14 15 16 15 14 17 19 19 20 21 19 19 20 19 17 16 15 15 16 16 16 16 15 13 11 12 13 12 13 15 16 18 19 21 22 24 25 26 27 26 25 25
6 7 8 7 8 8 8 8 7 6 7 8 9 10 11 12 13 13 12 11 9 7 6 6 7 8 8 7 7 6 6 5 5 6 6 6 6 7 8 8 9 9 10 10 11 13 12 10 14 16 17 19 20 17 18 21 22 21 20 18 17 19 20 20 19 18 17 16 16 15 15 15 17 17 18 21 23 24 25 26 27 27 27 28 28
6 6 6 5 6 7 7 8 7 7 8 9 9 10 10 11 11 10 9 7 6 5 5 5 6 5 5 5 5 5 4 4 4 5 5 6 6 7 7 8 8 8 9 9 9 10 10 9 11 12 13 16 17 15 15 18 20 21 21 20 20 21 22 23 22 20 19 19 18 18 17 17 17 18 19 21 23 25 26 28 29 29 29 30 30
6 5 6 5 5 5 5 5 6 6 7 7 8 8 8 8 8 8 8 7 7 7 6 6 6 6 5 5 4 4 4 5 5 6 7 8 8 9 9 9 9 9 9 10 10 10 10 9 10 11 12 13 15 15 14 16 17 18 20 22 23 23 23 23 22 21 20 19 19 18 17 16 17 19 20 22 23 24 27 29 30 31 31 31 31
5 5 5 5 5 5 5 5 5 6 8 8 8 8 8 8 8 8 8 8 8 7 7 6 5 5 5 5 5 5 5 6 7 8 9 10 10 11 11 10 11 11 11 11 11 11 10 9 9 10 11 12 13 14 15 16 17 17 18 20 21 21 22 22 22 20 20 20 19 17 16 16 18 20 21 22 24 26 28 30 31 31 32 32 32
4 5 6 6 5 5 5 5 5 6 7 8 9 8 8 8 8 9 8 8 7 7 6 6 6 5 5 5 4 5 5 5 6 7 8 8 9 9 9 10 10 11 12 12 13 13 12 11 10 11 11 12 12 14 14 15 16 15 14 14 16 19 21 22 22 21 20 20 18 17 17 18 20 21 22 24 27 29 31 31 31 32 33 33 34
5 6 7 7 6 6 5 4 4 5 6 7 7 7 7 7 7 6 6 6 6 6 6 6 5 5 3 3 3 3 3 4 5 6 7 8 8 9 9 9 10 10 11 12 13 13 13 12 12 11 12 12 12 12 12 12 12 11 10 10 14 18 20 21 21 21 20 19 19 19 20 21 22 23 26 28 30 31 32 32 32 32 33 33 34
4 5 5 5 5 6 5 4 4 4 5 5 6 6 6 6 6 6 6 6 6 6 5 4 3 2 2 3 4 4 5 6 7 8 9 10 10 11 11 11 11 11 11 11 12 12 12 12 12 12 12 12 11 10 9 8 7 7 8 10 14 18 20 20 20 20 19 19 20 21 22 23 25 27 30 32 32 32 31 31 30 31 31 31 30
1 2 3 5 6 5 6 7 7 6 6 6 7 8 7 7 7 7 7 6 6 5 4 3 3 4 5 6 6 7 7 8 9 10 10 11 11 11 11 12 12 12 11 11 11 11 11 12 12 12 12 12 12 10 7 6 6 7 9 13 16 18 19 20 20 20 20 20 21 23 25 27 29 31 33 33 32 32 31 30 30 31 31 29 28
2 3 4 6 7 9 10 11 12 12 11 10 10 10 9 9 9 8 8 7 7 6 6 6 7 8 8 8 9 9 10 11 12 12 11 11 11 11 11 12 12 11 11 11 10 10 11 12 12 12 12 12 11 9 8 7 8 10 13 15 17 18 18 19 20 20 21 22 24 26 28 30 31 32 32 32 31 31 30 30 30 30 29 28 27
5 5 6 7 9 10 10 10 11 11 11 11 11 11 10 10 9 9 8 8 8 8 8 8 9 9 10 11 11 12 12 13 13 12 12 12 12 12 12 12 12 12 11 11 10 10 11 11 11 10 10 10 10 9 8 9 11 13 15 16 17 18 19 19 20 21 22 24 26 28 29 30 30 29 29 30 29 30 29 29 28 27 27 26 23
11 11 11 11 11 11 11 12 12 12 12 12 12 12 11 11 10 10 10 9 9 9 9 9 10 11 11 12 13 13 13 12 12 12 12 12 12 13 12 12 12 12 11 10 9 9 9 9 9 9 9 9 9 9 10 11 12 14 15 16 18 19 20 21 22 23 25 26 26 27 27 27 27 28 28 28 28 28 28 28 27 26 26 24 20
15 15 15 15 16 15 15 15 15 15 15 15 15 15 15 15 15 16 15 13 12 11 10 10 11 11 11 11 11 11 11 12 12 13 13 13 14 13 13 11 11 12 11 9 7 7 7 7 8 8 8 8 9 10 11 12 13 14 16 17 19 20 22 23 23 24 24 25 25 26 26 26 27 27 27 27 27 27 27 26 26 26 26 25 21
16 16 16 16 17 18 19 19 19 20 20 19 18 18 18 18 17 17 16 15 13 11 11 10 10 9 9 10 10 11 12 13 14 15 15 16 16 15 13 12 10 10 10 8 6 6 7 8 8 8 9 10 12 13 15 16 16 17 19 20 21 21 21 22 22 23 24 25 25 25 26 26 26 26 26 26 27 27 27 27 27 27 27 26 24
19 18 18 18 18 18 19 21 22 23 22 21 19 19 18 17 16 16 15 14 13 12 11 11 10 10 11 11 12 13 14 15 16 17 18 18 18 16 15 12 10 8 8 8 6 6 7 8 9 10 11 13 15 17 18 18 18 19 19 20 21 21 21 21 22 23 23 24 24 24 24 25 25 25 26 26 26 27 27 27 27 27 26 26 26
21 22 22 21 21 20 20 21 22 23 23 22 21 20 19 19 18 18 16 16 15 14 14 13 12 12 13 13 14 15 16 17 18 19 19 19 19 16 14 12 10 8 8 8 9 9 9 9 10 11 12 14 15 16 16 16 16 17 18 19 19 20 20 21 21 22 22 22 23 23 23 24 24 24 25 26 26 26 26 26 26 26 26 26 26
22 23 23 23 23 24 23 23 23 24 24 24 24 23 22 22 21 20 19 18 17 16 15 14 14 14 14 15 16 17 17 18 19 20 20 19 17 15 12 11 10 9 9 9 10 10 10 10 11 12 12 13 13 14 14 15 15 16 17 18 18 19 19 20 20 21 21 21 22 22 22 23 23 23 24 25 25 25 24 24 24 23 23 23 23
22 22 23 23 23 24 25 25 25 25 25 26 26 26 24 24 22 21 20 19 18 17 17 16 16 16 16 17 18 18 18 19 19 20 19 17 16 13 11 11 10 10 9 10 10 10 11 12 12 12 12 12 13 13 14 14 15 16 16 17 18 18 19 19 19 20 20 20 21 21 21 21 21 22 22 23 23 22 22 21 20 19 18 17 18
24 24 23 22 22 22 23 24 24 23 23 25 26 26 25 24 23 21 20 19 18 18 18 18 18 18 18 19 19 19 19 20 20 19 18 16 14 13 11 11 11 11 11 10 11 11 11 12 12 11 11 11 12 12 13 14 15 15 16 16 17 17 18 17 17 18 19 20 20 20 20 20 20 21 22 22 21 20 19 18 17 16 15 14 15
26 26 25 24 23 22 20 20 20 19 19 22 24 25 25 24 22 21 20 19 19 19 20 20 20 20 20 21 20 20 21 21 19 18 17 15 14 13 12 12 12 13 12 12 11 11 11 11 10 10 9 10 11 11 12 13 14 15 15 15 15 15 16 16 16 17 18 19 19 20 20 20 21 21 21 21 21 20 18 18 18 17 16 16 16
26 27 27 26 26 24 22 20 19 18 19 21 22 23 23 22 21 21 21 20 21 21 21 22 22 22 22 22 21 21 22 21 19 18 18 17 16 15 14 14 14 14 13 12 11 10 10 9 9 9 9 9 10 10 11 12 12 13 13 13 12 13 14 15 16 17 19 19 20 20 20 20 20 20 20 20 21 20 19 19 20 19 19 18 17
24 25 26 27 27 27 25 24 23 22 21 22 22 22 22 22 22 23 23 22 22 23 23 23 23 23 23 22 22 22 22 21 20 21 20 19 18 17 16 15 15 14 12 11 10 9 8 8 8 8 8 8 9 9 9 10 10 10 11 11 12 13 14 15 16 17 18 19 20 20 20 20 19 19 20 20 21 21 20 21 21 21 20 19 19
22 22 22 24 26 26 26 25 24 23 23 23 23 23 24 25 25 25 24 23 23 24 25 25 24 24 24 24 24 24 24 23 22 22 22 20 19 18 17 16 15 14 12 10 9 8 7 7 7 7 7 7 7 7 7 8 9 10 11 11 12 12 13 14 16 17 17 18 19 19 20 20 19 19 20 21 21 22 22 22 22 21 21 20 20
22 21 21 21 22 22 22 22 21 22 23 24 25 26 27 27 27 26 26 26 26 26 27 27 26 26 26 26 26 27 26 25 24 24 23 21 20 19 18 17 15 13 12 10 8 7 7 6 6 6 5 5 5 5 5 7 9 10 12 12 13 13 13 14 16 16 16 17 18 18 19 20 19 19 20 21 21 22 22 23 22 21 21 21 21
20 20 19 18 18 18 18 18 19 20 22 23 24 25 26 27 27 28 28 28 28 28 28 28 28 28 28 28 28 27 27 26 26 25 24 21 20 20 20 18 16 14 11 8 7 7 6 5 5 5 3 2 2 4 6 8 10 12 13 13 14 14 14 15 15 16 16 17 18 19 19 19 19 19 20 20 20 21 22 23 22 21 22 22 22
16 16 16 16 16 17 17 18 18 19 20 22 23 24 25 27 27 28 29 29 30 29 29 29 30 30 30 29 27 26 26 26 26 26 23 21 21 22 21 19 17 15 11 9 8 7 6 5 4 2 0 2 4 6 8 10 11 12 14 15 15 15 16 15 15 16 17 18 19 19 19 19 19 19 19 20 20 21 22 22 21 21 22 22 23
11 13 14 15 15 16 17 18 19 20 22 23 24 26 27 28 29 30 30 30 30 30 30 30 31 31 29 27 25 23 24 24 24 23 22 21 22 23 20 17 15 13 11 9 8 7 6 4 2 2 3 5 6 8 9 10 11 13 14 15 16 17 17 17 17 17 18 18 19 20 21 20 19 18 18 19 20 21 21 21 21 21 21 22 22
9 10 11 11 11 12 15 17 20 22 24 25 26 28 29 30 30 30 30 30 30 29 29 29 29 27 24 23 22 22 21 20 20 21 21 21 20 17 14 13 13 12 10 9 8 6 4 3 3 4 6 7 8 8 8 9 10 12 13 15 16 17 18 19 19 18 18 18 19 20 22 23 21 20 19 19 20 20 20 20 20 21 21 21 21
7 6 6 7 9 13 16 18 20 22 22 23 25 26 27 28 28 28 28 28 27 26 24 23 22 19 18 18 19 20 20 20 21 22 22 21 18 15 12 12 12 11 10 9 7 5 3 4 5 6 7 7 8 7 8 9 10 11 13 14 15 17 18 20 20 20 19 18 18 20 23 25 24 22 19 19 19 19 20 20 20 20 21 21 21
4 2 4 8 11 14 15 15 15 16 16 18 19 21 23 24 24 25 25 24 22 19 18 17 16 16 16 18 20 21 22 23 24 25 24 21 19 15 13 12 11 10 9 7 6 4 4 6 7 7 7 7 7 7 7 8 9 10 12 14 15 17 18 20 21 21 21 21 21 23 25 26 25 22 19 18 18 19 20 20 19 19 20 21 21
2 2 5 7 9 9 9 9 11 13 16 17 17 18 18 18 18 18 18 16 15 14 15 15 14 15 17 20 22 23 24 26 26 25 23 21 18 14 12 10 9 7 6 6 5 5 6 7 7 6 7 6 6 7 7 8 9 10 12 13 15 16 18 19 20 20 21 22 23 25 26 26 25 23 21 19 18 18 18 19 19 19 20 20 21
1 2 4 5 6 7 8 9 12 14 14 12 11 12 14 14 14 14 14 15 15 15 15 14 12 12 16 20 20 20 23 25 25 23 22 19 16 13 10 8 6 5 6 6 6 6 6 7 6 6 6 5 6 7 7 8 9 10 12 13 14 15 16 17 18 19 21 22 23 25 25 26 25 23 22 20 19 18 18 17 18 19 19 19 20
1 1 3 5 5 6 6 7 8 9 7 5 3 4 6 9 10 12 13 15 15 14 13 13 15 18 21 22 21 21 23 23 22 20 19 16 13 10 9 7 5 5 6 6 6 6 6 6 5 4 4 5 6 7 7 8 9 11 12 13 14 15 16 17 18 19 21 22 24 25 25 26 26 25 23 22 21 20 19 17 17 18 19 19 19
2 1 2 3 3 2 3 4 6 7 9 9 7 4 3 5 6 9 11 13 14 15 17 20 23 24 23 21 21 21 21 20 19 17 15 12 10 8 7 6 5 4 5 5 5 6 6 5 4 3 3 5 6 6 7 9 10 11 12 13 14 15 16 16 17 19 21 23 25 25 26 26 27 27 25 23 22 22 20 18 17 18 18 18 18
1 1 1 1 4 6 6 6 8 11 13 14 14 13 12 12 13 14 15 17 20 22 24 25 24 23 21 19 19 18 18 17 15 13 11 9 7 6 6 5 4 3 4 4 5 5 5 4 2 2 4 5 6 6 8 9 11 11 12 13 14 15 15 16 17 19 21 24 26 26 26 27 27 27 27 24 22 22 21 19 17 18 17 17 17
1 1 1 3 5 6 7 7 9 11 13 15 16 16 17 17 18 18 19 20 21 22 22 23 22 20 19 18 16 15 14 13 12 10 8 5 4 4 5 4 3 3 3 4 5 5 4 3 1 2 4 4 5 6 7 9 10 11 13 14 15 15 16 16 17 18 20 23 25 26 26 26 27 27 27 25 22 21 21 19 17 17 17 16 16
6 5 5 6 7 8 7 7 7 9 10 12 14 15 15 16 16 17 17 17 18 18 18 18 18 16 15 14 12 11 11 11 11 9 5 3 2 3 4 3 3 2 3 4 5 5 4 2 1 2 3 3 4 6 7 8 9 11 13 15 16 17 16 16 16 18 19 21 24 25 26 26 26 26 27 26 23 21 20 19 17 17 16 15 15
11 11 12 13 13 12 11 10 11 10 10 10 11 12 12 13 13 13 13 12 12 13 13 13 12 12 11 10 10 12 13 12 9 6 3 1 2 4 4 4 3 3 3 5 6 5 4 2 1 1 1 2 4 5 7 8 9 12 14 16 17 18 18 17 17 17 18 20 22 24 25 25 25 25 26 26 24 22 20 19 18 17 16 15 14
14 15 15 16 15 14 13 14 15 14 13 13 13 14 14 14 14 13 12 11 11 11 10 10 10 10 10 11 12 13 12 10 7 4 2 1 2 4 5 4 3 3 5 6 6 5 3 1 1 1 1 2 4 5 6 8 9 12 14 16 17 19 19 18 17 17 18 19 20 23 24 24 24 24 24 25 24 23 21 19 17 16 15 14 13
13 15 14 14 13 13 13 14 15 15 15 15 15 15 16 16 16 15 14 13 13 12 12 12 12 12 12 13 12 11 9 7 5 3 2 2 3 4 4 3 3 4 5 6 6 4 2 1 1 1 1 2 4 5 6 8 9 11 13 15 16 18 19 19 18 17 17 18 19 21 22 22 23 23 23 23 23 23 21 19 17 15 14 13 12
11 13 13 13 13 13 12 12 12 13 13 13 13 13 14 14 14 14 13 13 13 13 13 12 12 11 11 10 9 7 6 5 3 3 3 3 4 5 4 4 4 5 5 5 5 3 2 1 2 2 2 3 4 5 6 7 8 10 11 13 14 16 18 19 18 17 16 17 18 20 21 22 22 22 22 22 22 22 21 19 17 15 14 12 12
9 10 11 11 12 12 12 11 11 11 11 11 11 11 11 11 12 12 11 10 10 10 10 10 9 9 8 7 6 5 4 4 4 4 4 4 5 5 5 5 5 5 5 5 4 2 2 2 2 2 2 3 4 5 6 7 8 10 11 12 13 14 15 18 18 17 16 16 17 19 20 21 21 20 20 20 21 21 20 19 17 16 14 12 11
Wind_Direction
221 219 219 219 219 217 211 205 201 194 186 182 184 191 192 190 192 193 192 187 181 176 168 159 151 145 139 117 65 45 44 43 36 27 21 25 35 44 46 40 31 28 31 28 21 20 21 25 28 29 40 49 51 59 76 88 93 98 99 103 122 142 156 167 155 137 125 108 79 42 18 12 2 350 343 342 339 337 335 332 330 327 322 319 317
224 219 219 219 219 219 217 213 210 207 197 187 184 188 191 192 194 195 194 189 188 191 189 182 178 185 202 230 266 322 3 11 13 10 2 356 358 3 15 59 70 51 37 29 16 6 358 359 2 3 14 27 31 36 41 52 71 86 92 99 111 123 133 144 140 122 96 53 19 2 349 344 339 332 328 328 328 329 331 329 325 320 317 317 315
225 221 219 219 219 222 221 217 215 215 210 197 189 192 194 192 193 196 198 197 195 199 201 200 205 216 226 237 242 239 258 321 336 340 336 327 320 314 299 283 269 269 323 336 328 331 326 323 327 323 321 327 334 348 358 5 19 24 36 59 80 95 102 100 78 43 15 353 341 339 336 333 332 331 328 326 325 325 325 323 322 320 318 316 313
219 219 220 220 222 226 225 221 218 219 220 208 197 198 200 197 196 198 203 206 204 206 212 217 224 233 239 242 246 251 254 267 286 299 303 299 293 287 280 274 267 264 271 281 283 290 294 288 287 285 284 290 295 308 319 311 314 342 355 354 352 4 22 20 9 2 0 359 352 346 342 339 339 338 337 334 330 326 322 319 318 316 314 312 309
213 215 218 220 224 228 230 225 220 219 221 215 206 205 207 205 203 205 209 211 210 214 222 228 237 245 248 250 257 268 271 272 275 281 288 289 285 283 278 270 266 265 264 266 271 281 288 285 279 270 261 264 264 262 275 291 304 329 339 334 327 326 326 329 341 349 355 4 5 0 358 356 354 351 348 345 339 333 326 320 315 311 309 307 305
215 213 215 218 221 226 230 228 223 221 222 219 214 213 213 211 210 213 220 222 221 226 232 238 246 250 251 254 261 269 271 271 273 278 287 291 287 283 276 267 267 270 267 267 269 272 278 281 281 275 267 265 262 254 255 276 283 283 283 283 285 295 303 306 316 329 335 338 344 350 353 352 350 347 347 347 343 339 334 325 316 309 305 304 303
220 217 214 212 211 216 224 229 227 223 219 217 216 219 219 218 217 220 228 234 233 237 244 249 253 255 256 257 261 263 265 268 271 276 284 288 283 279 273 265 264 265 264 265 265 265 269 273 273 271 271 272 269 262 258 260 266 269 267 264 266 270 275 281 292 305 311 313 321 330 334 334 334 334 337 339 339 339 338 334 327 318 311 307 306
212 203 195 193 196 206 217 222 217 209 208 212 216 219 220 221 221 223 231 239 241 245 252 254 255 258 260 259 258 259 261 264 268 274 280 281 276 271 267 262 261 262 263 264 261 259 262 264 262 261 269 275 271 264 257 252 254 262 265 266 266 267 269 273 277 281 285 292 299 308 316 321 324 326 329 333 334 333 334 336 333 327 319 314 310
173 173 174 178 188 198 203 201 190 185 197 210 216 217 218 218 220 226 236 245 251 256 259 258 256 258 259 258 256 257 260 263 267 270 273 273 270 268 266 266 266 266 267 266 261 255 252 251 253 258 266 269 265 261 258 253 250 254 260 265 267 268 270 272 272 271 272 278 284 293 305 312 316 320 322 325 328 328 330 331 330 326 321 316 312
152 162 171 180 193 202 207 209 205 200 207 216 218 218 221 223 226 236 245 252 258 261 261 258 255 253 254 255 254 254 255 258 262 265 267 267 270 273 276 277 276 274 274 274 270 267 263 259 259 262 266 265 261 259 259 255 252 251 254 260 266 269 268 267 267 268 269 272 277 286 297 302 308 314 316 319 323 326 328 329 327 325 321 317 315
132 145 159 175 194 206 219 228 231 227 224 228 230 229 231 234 237 241 244 244 246 244 237 231 229 230 232 232 229 226 226 230 240 251 259 269 281 289 295 297 298 295 292 289 287 289 293 285 273 272 272 270 271 272 265 258 254 252 252 254 260 264 266 266 268 269 270 271 276 284 291 296 304 310 311 314 320 324 326 327 324 322 320 317 316
105 114 129 155 181 198 211 222 228 228 225 226 230 233 233 229 225 220 212 199 184 171 161 156 158 165 171 175 178 182 191 209 229 246 262 276 287 294 298 299 300 300 299 298 298 302 307 303 290 286 284 281 285 285 271 258 255 255 254 252 254 257 262 266 268 269 271 274 278 283 287 294 302 305 306 311 317 320 323 323 320 317 316 314 313
99 103 108 120 137 157 174 189 196 195 193 193 198 203 204 198 191 183 173 163 159 159 157 152 152 159 166 172 179 190 205 225 244 259 270 278 284 287 289 289 289 290 291 293 297 300 303 303 296 291 288 286 287 287 278 267 262 259 255 251 251 253 258 263 267 270 273 274 277 281 286 292 298 301 305 310 314 317 318 317 315 313 312 310 309
108 111 117 122 125 129 137 148 156 156 157 164 170 175 178 175 170 167 163 161 161 161 161 164 169 174 183 191 199 214 229 243 256 266 272 276 279 281 281 280 280 282 284 288 292 294 296 298 298 295 291 287 284 282 279 275 270 265 257 252 250 252 256 261 266 269 271 273 278 285 291 296 299 302 306 309 313 315 314 313 312 311 309 307 306
135 127 124 124 124 127 134 142 148 150 154 161 167 171 174 173 170 167 166 167 170 172 175 181 186 189 194 202 212 227 243 254 263 270 275 279 282 284 285 284 282 281 280 282 285 287 289 292 296 299 298 293 286 281 280 279 274 268 260 254 253 253 255 261 266 269 271 276 283 291 296 299 302 304 307 310 312 311 310 309 309 308 307 307 307
178 154 137 125 115 111 116 131 149 159 163 168 174 180 183 185 187 185 182 180 178 178 180 181 183 186 193 212 235 257 277 292 300 302 301 302 303 303 303 302 297 290 284 280 279 281 283 285 288 292 294 293 287 281 281 281 277 272 268 262 259 258 260 264 267 271 276 282 289 294 298 301 303 306 308 310 310 310 310 311 310 309 308 309 310
189 179 172 167 146 130 127 133 142 157 174 184 191 195 196 202 205 202 197 189 181 177 177 180 189 211 249 272 282 293 302 311 315 315 313 313 312 312 312 311 309 305 297 289 283 281 282 282 282 283 286 289 288 283 280 280 279 278 274 266 262 262 264 267 270 274 280 286 291 295 299 302 304 306 307 307 308 309 310 310 310 309 309 309 309
236 229 225 225 220 220 227 230 229 234 242 239 229 222 220 219 220 217 213 211 210 210 219 239 266 285 291 291 294 301 307 310 311 309 310 309 309 310 311 310 310 309 306 299 291 284 281 279 278 281 286 291 293 294 298 300 287 271 264 262 261 261 264 269 274 280 285 289 294 298 301 302 303 304 305 305 306 307 306 306 306 305 306 306 304
288 295 290 277 267 266 266 261 256 253 252 245 234 229 228 229 229 230 230 235 244 252 262 274 284 291 294 295 298 303 307 310 309 309 310 309 309 311 312 312 313 312 310 306 297 288 285 285 288 293 298 302 304 308 313 311 293 276 267 263 263 265 269 274 280 285 290 295 299 301 301 301 301 301 302 302 303 303 303 303 303 303 303 302 301
245 251 253 259 265 268 266 259 253 245 235 227 224 228 234 236 237 240 245 250 258 266 272 278 283 288 291 293 297 301 305 306 307 308 310 312 314 316 316 317 317 315 314 311 302 295 295 297 300 304 309 312 313 311 305 297 289 282 276 272 273 276 279 282 286 291 295 298 299 299 298 298 299 300 300 301 302 303 303 304 303 303 302 300 297
246 245 240 235 240 249 253 250 247 242 237 235 238 241 245 248 254 262 267 270 271 272 274 279 284 289 292 293 295 298 301 303 303 303 306 310 315 317 317 316 317 318 320 315 302 293 294 298 302 304 305 305 305 302 295 287 281 279 278 278 280 282 284 287 291 294 296 296 297 297 298 299 301 302 303 304 304 304 304 303 303 302 300 297 292
254 254 250 242 239 241 244 246 249 251 251 252 253 253 255 259 265 269 271 272 272 273 276 282 287 290 293 295 298 302 305 306 304 301 301 304 310 314 314 310 311 318 323 318 297 279 276 284 294 297 295 293 294 295 292 287 282 281 282 284 286 287 289 292 294 296 297 299 300 302 304 306 306 306 306 305 304 303 302 301 299 297 294 291 287
259 257 255 251 247 244 243 244 247 252 257 259 258 257 257 257 258 258 258 260 261 265 273 283 289 294 297 299 303 308 310 310 306 302 300 299 303 310 310 303 303 316 323 319 298 274 267 271 280 287 287 289 294 295 292 289 286 286 288 290 293 294 295 297 298 300 302 304 306 307 308 308 307 306 305 304 302 302 301 299 296 294 292 291 289
261 260 258 257 255 251 248 246 245 248 253 256 255 252 250 248 248 249 251 252 253 258 267 276 283 289 294 299 302 305 306 306 303 300 297 295 296 300 301 294 290 304 315 308 288 270 264 265 272 280 285 290 294 296 295 294 292 293 295 297 298 299 300 302 303 304 305 306 307 307 307 306 306 306 305 304 304 304 303 302 300 298 297 296 294
261 261 260 260 259 257 254 250 247 246 248 250 252 251 247 244 246 248 249 249 249 253 259 266 275 282 288 292 295 297 298 298 298 296 294 293 292 291 287 280 278 288 298 291 276 266 263 267 274 282 288 294 299 301 301 301 300 300 300 301 302 303 304 305 307 307 307 308 307 308 308 309 309 310 310 309 310 310 309 307 305 304 303 302 300
260 260 260 260 260 259 255 251 248 246 246 247 248 248 246 245 245 246 245 245 247 251 257 264 271 276 279 282 285 288 290 292 294 295 293 291 289 285 276 267 269 278 284 279 270 266 266 273 280 286 290 297 303 306 306 305 304 304 304 305 307 308 309 309 309 309 310 311 312 314 314 314 315 315 314 315 316 316 315 312 311 311 310 307 304
256 256 256 256 257 256 254 251 247 246 247 246 244 243 242 241 241 241 243 245 248 253 259 265 268 270 272 275 278 281 285 288 290 289 287 287 287 282 272 263 264 270 274 273 269 267 269 276 280 283 287 295 302 304 305 305 307 309 311 312 312 311 310 310 311 313 316 318 318 318 318 318 319 320 321 323 325 325 323 321 319 317 314 310 307
255 252 251 251 251 251 251 249 246 245 246 243 241 241 241 240 241 242 243 247 251 256 259 261 263 265 268 271 274 277 280 284 285 283 280 280 282 279 270 262 261 265 268 267 264 264 269 274 277 281 290 297 301 303 306 310 313 315 315 314 313 312 313 315 319 323 325 325 324 324 324 325 327 330 331 332 332 331 329 326 322 317 313 310 306
255 252 249 249 247 246 246 245 242 242 242 240 238 238 238 237 239 242 244 247 251 255 257 258 261 263 265 267 270 272 275 277 279 275 270 269 272 272 264 256 255 260 263 261 260 264 271 275 278 284 291 296 299 304 310 314 315 315 313 313 315 319 322 325 329 330 331 332 333 333 333 334 335 336 336 335 333 331 328 326 323 319 315 312 308
259 254 251 249 247 245 245 245 241 239 239 239 238 239 240 241 242 245 247 249 251 253 256 258 260 262 264 267 269 269 269 270 266 261 259 262 266 264 256 249 250 255 257 256 258 266 273 275 277 282 287 293 301 307 312 314 314 314 317 321 326 329 329 331 333 335 337 340 340 340 339 338 338 338 336 333 331 329 327 327 327 325 321 317 312
261 258 253 250 248 246 246 248 247 245 245 245 245 247 249 251 251 250 250 250 251 254 256 259 261 262 265 268 270 269 267 263 257 253 255 260 261 257 249 245 247 251 250 249 254 263 268 270 273 278 285 294 302 307 312 315 317 322 330 336 336 334 333 334 335 337 340 342 342 341 341 339 338 337 335 332 330 330 330 331 331 329 325 320 314
258 260 256 252 250 248 246 246 247 246 247 248 247 249 251 252 252 252 253 254 256 258 260 262 263 265 267 269 270 268 265 259 252 251 254 256 254 247 241 239 242 242 238 238 245 253 255 257 265 276 285 293 303 313 320 327 335 344 349 349 345 341 337 335 333 335 338 337 337 339 341 340 340 339 336 334 332 331 330 329 329 329 326 322 318
252 256 257 254 251 247 243 241 241 240 241 243 244 246 250 252 254 255 256 256 257 259 262 264 266 268 269 269 268 265 261 255 250 248 250 251 246 237 231 231 232 229 227 228 234 239 244 250 260 271 281 295 315 333 345 356 5 8 5 360 354 347 341 335 333 333 331 330 334 340 343 342 342 340 337 334 330 328 327 327 328 328 326 322 319
251 254 255 252 249 245 241 241 241 242 243 245 248 250 252 255 257 258 259 260 261 261 263 265 267 269 269 267 264 261 257 251 245 242 244 244 238 231 226 222 216 211 210 215 222 228 235 244 253 264 280 313 360 21 27 27 24 20 13 7 359 351 343 337 334 333 333 335 340 344 344 342 342 340 337 332 328 326 327 328 328 326 323 321 319
249 249 245 242 241 241 243 246 249 250 253 255 257 259 260 261 262 263 263 264 265 265 266 267 267 267 267 265 262 258 252 245 238 236 237 236 228 221 216 209 202 198 198 203 212 219 225 234 244 254 284 72 65 55 46 38 30 22 15 10 4 359 354 349 344 342 342 343 343 343 343 344 342 338 333 330 328 328 328 328 326 324 323 322 321
242 242 241 241 242 244 247 251 254 257 261 263 263 265 265 265 265 266 266 266 266 266 267 266 265 265 264 262 258 249 240 234 231 229 227 222 216 211 204 195 191 191 192 197 206 210 213 220 217 160 115 93 74 59 49 39 29 21 15 9 5 3 1 359 355 349 345 342 341 342 344 345 341 336 331 330 331 331 330 328 326 325 324 322 320
231 234 237 243 251 255 257 259 260 262 263 264 264 265 264 263 264 264 263 263 264 263 263 263 263 262 259 254 245 233 224 219 217 214 209 203 199 195 190 186 186 188 188 193 197 200 201 193 158 133 110 88 71 59 47 34 25 18 13 8 4 2 1 1 359 353 346 343 342 344 346 346 344 340 335 332 333 333 331 329 327 325 323 321 318
209 214 231 256 272 271 270 270 269 268 268 267 266 265 263 262 261 260 260 260 260 259 258 257 254 249 242 233 223 213 205 198 193 188 185 181 175 169 170 176 182 185 187 187 186 183 176 157 141 123 99 79 67 54 40 29 20 13 8 6 3 2 2 2 0 357 354 351 348 348 350 349 347 344 340 337 336 335 333 332 330 327 324 323 322
166 212 272 289 287 281 281 282 282 282 283 279 275 271 266 262 258 257 256 255 252 249 244 237 231 227 220 210 202 196 190 184 178 174 169 165 161 159 164 172 175 179 181 178 173 169 159 146 133 111 89 73 59 44 31 22 15 8 4 3 3 3 3 2 0 359 358 357 355 354 354 352 349 346 344 342 339 337 336 335 334 330 327 326 326
138 274 289 299 294 292 298 300 298 298 295 286 277 269 262 257 254 251 247 240 230 224 220 219 223 224 210 197 191 186 177 170 167 164 160 157 157 159 163 167 166 168 172 171 169 162 150 139 127 105 83 65 46 32 22 16 10 5 1 1 3 3 2 1 359 359 359 358 357 356 355 353 350 347 345 344 341 340 340 339 337 334 332 330 329
190 286 311 320 311 308 308 302 300 302 299 288 273 257 245 241 239 234 225 216 211 212 214 215 213 198 178 169 167 166 160 157 158 157 155 156 158 159 159 156 148 151 168 172 166 154 143 138 127 103 77 52 32 21 12 7 5 1 359 0 2 1 360 359 358 359 359 358 358 357 356 355 352 349 347 348 347 346 346 344 340 337 335 333 333
153 9 346 332 319 313 308 307 315 326 337 342 319 259 230 223 220 215 209 207 206 203 196 181 162 150 145 144 145 147 148 150 154 154 153 154 155 151 149 146 139 149 167 167 156 147 145 140 128 100 66 36 20 10 3 1 0 358 357 359 359 358 357 357 356 358 359 359 360 358 357 357 356 353 352 353 352 350 351 349 345 341 337 335 337
115 75 333 328 354 27 25 17 24 37 48 50 48 62 119 156 171 174 176 177 171 158 150 144 138 135 135 136 140 144 145 147 150 150 147 144 140 138 145 151 145 148 160 157 149 149 150 144 126 88 42 20 11 4 359 359 357 354 355 357 356 355 355 354 354 356 358 359 0 360 358 358 357 356 357 356 354 352 353 353 349 344 339 337 340
145 301 313 34 82 82 72 62 65 72 75 74 75 81 91 104 115 122 130 136 137 134 133 132 129 129 130 131 137 143 144 144 145 142 135 129 126 134 149 155 143 140 148 148 149 155 153 141 116 51 15 7 5 3 360 358 356 355 357 359 357 355 354 352 353 355 357 358 360 359 358 356 357 357 358 357 354 353 354 355 351 346 341 339 341
101 84 123 127 114 100 85 76 77 81 84 87 90 91 94 99 105 109 116 123 125 127 128 129 130 131 131 131 136 142 144 142 140 135 128 121 119 136 152 154 137 133 143 148 155 159 151 131 88 6 356 359 5 6 3 359 358 0 3 4 1 358 355 352 352 354 356 357 358 358 356 355 355 356 357 358 356 354 354 354 352 348 343 339 340
84 91 110 123 124 115 99 82 79 82 86 91 95 97 99 101 103 107 112 118 121 125 129 132 136 138 136 134 138 143 143 141 137 132 124 116 123 145 157 151 133 133 144 146 148 145 133 114 37 345 352 7 15 11 5 3 6 9 10 9 6 2 358 353 352 354 355 355 355 356 355 353 353 354 357 358 358 356 354 354 354 351 346 342 341
83 89 97 101 104 102 93 83 78 79 83 85 86 89 93 97 101 106 111 117 124 131 135 138 141 142 139 137 140 141 139 137 133 130 128 143 165 162 157 146 137 142 138 130 125 122 117 106 8 354 25 35 22 13 7 6 11 14 13 10 8 5 1 355 352 353 354 354 354 354 354 352 352 354 356 357 358 358 356 355 357 355 350 347 345
81 89 94 96 97 95 88 83 82 82 85 89 91 91 94 98 104 110 115 121 128 135 140 142 143 142 140 139 138 139 140 140 139 146 170 204 179 163 158 151 140 129 119 114 114 116 118 111 34 47 65 40 20 14 8 7 11 14 11 9 9 7 3 358 353 352 353 353 353 354 354 353 352 354 355 356 358 360 359 357 357 356 354 353 351
84 89 92 95 97 94 89 86 86 87 88 91 94 96 98 101 103 106 109 113 117 122 126 130 133 136 139 141 141 144 148 149 151 166 195 198 173 164 162 148 118 109 111 115 120 123 120 94 51 57 44 18 12 11 7 4 7 9 7 6 6 6 4 1 356 351 351 353 353 354 355 354 354 355 356 355 357 359 0 358 357 357 357 357 355
91 92 93 94 97 96 93 91 92 92 91 92 94 97 99 103 105 106 107 109 113 116 118 122 126 132 138 144 149 156 164 172 186 204 208 194 181 172 159 131 108 108 118 124 125 121 101 51 37 30 13 5 5 4 359 355 357 360 1 1 2 2 3 3 360 353 351 353 354 354 355 357 357 356 355 354 355 358 0 360 359 359 360 0 359
102 97 97 98 99 101 101 100 99 96 95 95 96 97 98 101 104 106 107 109 114 120 123 127 133 140 149 161 172 183 199 219 230 225 209 196 186 170 148 124 112 115 122 121 115 105 78 52 40 24 8 360 354 352 348 345 347 351 353 355 356 357 359 2 2 357 352 353 354 354 356 359 360 358 356 355 356 358 360 1 0 0 1 2 2